Weather in Pushkino

Russia / Kaliningrad Oblast     54°35′24″N   22°36′29″E
temp.,
°C
wind,
m/s
gust,
m/s
humid.,
%
clouds,
%
prec.,
mm/h
press.,
hPa
HPBL,
m
11 may, tue
tue1123:00+15sse6157714 0.0 1017476
02:00+14sse71679100 0.0 1017434
05:00+13sse61581100 0.0 1017357
08:00+16sse7157240 0.0 1018605
11:00+20sse7125657 0.0 10171000
14:00+22se7105530 0.0 10161306
17:00+21se711625 0.0 10161104
20:00+16se7156521 0.0 1016589
12 may, wed
wed1223:00+13se6166820 0.0 1016532
02:00+12se615705 0.0 1015421
05:00+11se615775 0.0 1015402
08:00+16se6147111 0.0 1015579
11:00+20se812625 0.0 10151183
14:00+20se71053100 0.0 10151339
17:00+18ese69560 0.0 10141299
20:00+13ese511720 0.0 1014365
13 may, thu
thu1323:00+10se37830 0.0 1013157
02:00+9se358710 0.0 101293
05:00+8sse118851 0.0 101014
08:00+11ene1276100 0.0 1009175
11:00+10ssw1291100 1.0 1007147
14:00+10s1192100 1.3 1006198
17:00+10se2396100 1.1 1005229
20:00+9ese2596100 2.3 1004235
14 may, fri
fri1423:00+9e4997100 0.7 1004350
02:00+9ese489698 1.1 1003365
05:00+9e3799100 0.5 1002396
08:00+10e2597100 1.0 1001366
11:00+12ese1287100 0.1 1002570
14:00+14s457994 0.4 1002817
17:00+15s3676100 0.1 1003801
20:00+12sse35945 0.4 1003105
15 may, sat
sat1523:00+9s349456 0.0 100359
02:00+8s359660 0.0 100478
05:00+8ssw369716 0.0 1004118
08:00+12wsw568966 0.0 1005477
11:00+12wsw567999 0.0 1007793
14:00+15w566595 0.1 10071329
17:00+15wnw356412 0.0 10071024
20:00+12wsw118362 0.0 100810